Flag for Switzerland Weather past 2 weeks in Bern, Bern, Switzerland

Now
66 °F

Scattered clouds.


Feels Like: 66 °F
Forecast: 45 / 61 °F
Wind: 5 mph from Northwest

Location: Bern / Belp

Current Time: Apr 26, 2015 at 3:34:55 PM

Latest Report: Apr 26, 2015 at 3:20 PM


Visibility: N/A

Pressure: 29.74 "Hg

Humidity: 60%

Dew point: 52 °F

Location of BernLocation

Historic Weather in Bern — Graph

°F

Bern temperature yesterday

Maximum temperature yesterday: 63 °F (at 11:50 AM)
Minimum temperature yesterday: 41 °F (at 2:20 AM)
Average temperature yesterday: 54 °F

Past Weeks' High & Low Weather Summary

 TemperatureHumidityPressure
High75 °F (Apr 15, 6:50 PM)100% (Apr 12, 6:50 AM)30.45 "Hg (Apr 12, 6:50 AM)
Low28 °F (Apr 19, 6:50 AM)17% (Apr 14, 6:20 PM)29.77 "Hg (Apr 26, 1:50 PM)
Average52 °F69%30.14 "Hg
* Reported Apr 11 2:20 PM — Apr 26 2:20 PM, Bern, Weather by CustomWeather, © 2015

Note: Actual official high and low records may vary slightly from our data, if they occured in-between our weather recording intervals... More about our weather records

Advertising

Bern weather history for previous 24 hours

 ConditionsComfort  
Time TempWeatherWind HumidityBarometerVisibility
2:20 PM
Sun, Apr 26
64 °FBroken clouds.6 mph60%29.77 "HgN/A
1:50 PM64 °FBroken clouds.6 mph60%29.77 "HgN/A
1:20 PM64 °FBroken clouds.3 mph60%29.80 "HgN/A
12:50 PM63 °FBroken clouds.3 mph59%29.80 "HgN/A
12:20 PM64 °FPassing clouds.5 mph60%29.83 "HgN/A
11:50 AM63 °FScattered clouds.2 mph64%29.83 "HgN/A
11:20 AM59 °FScattered clouds.1 mph68%29.83 "HgN/A
10:50 AM59 °FScattered clouds.No wind72%29.86 "HgN/A
10:20 AM57 °FScattered clouds.No wind77%29.86 "HgN/A
9:50 AM55 °FScattered clouds.1 mph77%29.86 "HgN/A
9:20 AM54 °FScattered clouds.1 mph88%29.86 "HgN/A
8:50 AM54 °FScattered clouds.2 mph88%29.86 "HgN/A
8:20 AM52 °FScattered clouds.1 mph94%29.86 "HgN/A
7:50 AM50 °FScattered clouds.2 mph94%29.86 "HgN/A
7:20 AM48 °FPassing clouds.No wind94%29.86 "HgN/A
6:50 AM48 °FSprinkles. Passing clouds.No wind100%29.86 "HgN/A
6:20 AM48 °FPassing clouds.2 mph100%29.89 "HgN/A
5:50 AM48 °FSprinkles. Partly cloudy.5 mph100%29.89 "HgN/A
5:20 AM48 °FPartly cloudy.3 mph94%29.89 "HgN/A
4:50 AM48 °FPartly cloudy.3 mph94%29.89 "HgN/A
4:20 AM48 °FPartly cloudy.2 mph94%29.92 "HgN/A
3:50 AM50 °FSprinkles. Passing clouds.3 mph94%29.92 "HgN/A
3:20 AM50 °FPartly cloudy.7 mph94%29.92 "HgN/A
2:50 AM50 °FRain showers. Overcast.5 mph94%29.92 "HgN/A
2:20 AM50 °FSprinkles. Passing clouds.2 mph94%29.95 "HgN/A
1:50 AM50 °FRain showers. Passing clouds.6 mph94%29.92 "Hg4 mi
1:20 AM50 °FPartly cloudy.2 mph94%29.95 "HgN/A
12:50 AM50 °FOvercast.1 mph100%29.95 "HgN/A
12:20 AM50 °FPassing clouds.2 mph94%29.95 "HgN/A
11:20 PM
Sat, Apr 25
52 °FMostly cloudy.1 mph94%29.95 "HgN/A
10:50 PM52 °FMostly cloudy.2 mph88%29.95 "HgN/A
10:20 PM52 °FPassing clouds.3 mph88%29.95 "HgN/A
9:50 PM52 °FLight rain. Passing clouds.7 mph88%29.92 "HgN/A
9:20 PM54 °FRain. Passing clouds.14 mph82%29.95 "Hg4 mi
8:50 PM54 °FRain. Partly sunny.15 mph82%29.92 "Hg4 mi
8:20 PM57 °FLight rain. Partly sunny.15 mph77%29.89 "HgN/A
7:50 PM57 °FSprinkles. Scattered clouds.8 mph77%29.89 "HgN/A
7:20 PM59 °FDrizzle. More clouds than sun.2 mph77%29.89 "HgN/A
6:50 PM61 °FPartly sunny.2 mph72%29.86 "HgN/A
6:20 PM63 °FPartly sunny.3 mph64%29.86 "HgN/A
5:50 PM63 °FPartly sunny.3 mph64%29.89 "HgN/A
5:20 PM63 °FPartly sunny.1 mph64%29.89 "HgN/A
4:50 PM61 °FPartly sunny.3 mph68%29.89 "HgN/A
4:20 PM61 °FPartly sunny.3 mph68%29.89 "HgN/A
3:50 PM61 °FOvercast.8 mph68%29.89 "HgN/A
3:20 PM59 °FOvercast.12 mph68%29.92 "HgN/A
Weather by CustomWeather, © 2015

See weather overviewHow to use our weather pages